Вернуться в каталог

STARLINK-30129

АктивенСвязьVLEO
NORAD 56689·PAYLOAD·🇺🇸 United States

Запущен May 19, 2023 с Cape Canaveral Space Force Station

Loading…

Ближайшие Пролёты (ближайшие 24 часа)

TLE

СвежийSource: CelesTrak SupGP

Эпоха: Sep 15, 2026, 02:29 UTC

1 56689C 23067B   26258.10395833  .00014772  00000+0  53498-3 0  2587
2 56689  43.0011 291.5267 0001320 262.2201 280.7623 15.27574179    15

Отслеживайте STARLINK-30129 в реальном времени с AllMySat

Download on the App Store